[[{"header":{"parameterUnit":"m.s-1","parameterCategory":1,"la1":30.2992,"la2":30.254,"lo1":-89.0895,"lo2":-89.0443,"dy":0.0025,"dx":0.0025,"nx":19,"ny":19,"refTime":"2026-05-06T09:00:00:Z","depth":0,"parameterNumber":2,"parameterNumberName":"U-component_of_WINDS"},"data":[0,0,0,-2.215,-2.2152,-2.2209,-2.2209,-2.2277,-2.2278,0,0,0,0,0,0,0,0,0,0,0,-2.2129,-2.213,-2.215,-2.2152,-2.2209,-2.2209,-2.2277,-2.2278,0,0,0,0,0,0,0,0,0,0,0,-2.2129,-2.213,-2.213,-2.2152,-2.2209,-2.2209,-2.2277,-2.2236,0,0,0,0,0,0,0,0,0,0,-2.2181,-2.2158,-2.213,-2.213,-2.2152,-2.2209,-2.2209,-2.2234,-2.2238,-2.2249,0,-2.2256,0,-2.2268,-2.2282,-2.2282,0,0,0,-2.2155,-2.2154,-2.2173,-2.213,-2.2153,-2.2209,-2.2184,-2.2236,-2.2241,-2.2255,-2.2257,-2.226,-2.2269,-2.2282,-2.2283,-2.2332,-2.2332,0,0,-2.2151,-2.2138,-2.2169,-2.2176,-2.2166,-2.2182,-2.2186,-2.224,-2.2242,-2.2258,-2.2262,-2.227,-2.2283,-2.2283,-2.2332,-2.2332,0,0,0,-2.214,-2.2135,-2.2153,-2.2173,-2.2184,-2.2184,-2.2188,-2.224,-2.2247,-2.2263,-2.2271,-2.2283,-2.2284,-2.2331,-2.2332,-2.2322,0,0,0,-2.2139,-2.2129,-2.2152,-2.2144,-2.2183,-2.2212,-2.2186,-2.2243,-2.2249,-2.2271,-2.2283,-2.2284,-2.2331,-2.2331,-2.2322,-2.232,0,0,0,-2.2127,-2.2128,-2.2135,-2.2143,-2.2167,-2.2212,-2.2222,-2.2245,-2.2254,-2.2282,-2.2285,-2.2331,-2.2331,-2.2322,-2.232,-2.2328,0,0,0,-2.2111,-2.2125,-2.2134,-2.2154,-2.2167,-2.2206,-2.2222,-2.2251,-2.2274,-2.2283,-2.2331,-2.2332,-2.2322,-2.232,-2.2328,-2.2333,-2.2333,0,0,-2.2122,-2.2126,-2.2139,-2.2149,-2.2182,-2.2198,-2.2231,-2.2265,-2.228,-2.2314,-2.2315,-2.2322,-2.232,-2.2328,-2.2342,-2.2343,0,0,0,-2.2138,-2.2147,-2.2159,-2.218,-2.2206,-2.2228,-2.2259,-2.2272,-2.2301,-2.2294,-2.2328,-2.2327,-2.2333,-2.2336,-2.2336,-2.2341,-2.2332,-2.2332,-2.2332,-2.2133,-2.2152,-2.2174,-2.22,-2.2221,-2.2252,-2.2271,-2.2293,-2.2307,-2.2314,-2.2324,-2.233,-2.2333,-2.2333,-2.2339,-2.2329,-2.2329,-2.2329,-2.2328,-2.215,-2.2165,-2.2183,-2.2211,-2.2232,-2.2256,-2.2287,-2.2296,-2.2322,-2.2324,-2.233,-2.2331,-2.2333,-2.2339,-2.2328,-2.2328,-2.2328,-2.2328,-2.2328,-2.2148,-2.2159,-2.2174,-2.2207,-2.223,-2.2257,-2.228,-2.2298,-2.2315,-2.2321,-2.2334,-2.2334,-2.2336,-2.2326,-2.2326,-2.2326,-2.2326,-2.2326,-2.2326,-2.214,-2.2158,-2.2175,-2.2205,-2.2221,-2.2244,-2.2277,-2.2294,-2.2317,-2.2328,-2.2328,-2.234,-2.233,-2.2326,-2.2327,-2.2326,-2.2326,-2.2326,-2.2326,-2.2149,-2.215,-2.2177,-2.2193,-2.223,-2.2252,-2.2275,-2.2307,-2.2323,-2.2335,-2.2347,-2.2336,-2.2342,-2.2342,-2.2339,-2.2342,-2.2342,-2.2342,-2.2342,-2.2147,-2.2152,-2.2184,-2.2209,-2.2235,-2.2258,-2.2289,-2.2315,-2.2342,-2.2354,-2.2356,-2.2354,-2.2353,-2.236,-2.2359,-2.2357,-2.2365,-2.2365,-2.2365,-2.2154,-2.2162,-2.2184,-2.221,-2.2241,-2.2266,-2.2296,-2.2324,-2.2355,-2.2367,-2.2363,-2.2362,-2.2359,-2.2358,-2.2368,-2.2367,-2.2363,0,0]},{"header":{"parameterUnit":"m.s-1","parameterCategory":1,"la1":30.2992,"la2":30.254,"lo1":-89.0895,"lo2":-89.0443,"dy":0.0025,"dx":0.0025,"nx":19,"ny":19,"refTime":"2026-05-06T09:00:00:Z","depth":0,"parameterNumber":3,"parameterNumberName":"V-component_of_WINDS"},"data":[0,0,0,4.5248,4.5249,4.5259,4.5259,4.5282,4.5282,0,0,0,0,0,0,0,0,0,0,0,4.5252,4.5252,4.5248,4.5249,4.5259,4.5259,4.5282,4.5282,0,0,0,0,0,0,0,0,0,0,0,4.5252,4.5252,4.5253,4.5249,4.5259,4.5259,4.5282,4.527,0,0,0,0,0,0,0,0,0,0,4.5259,4.5268,4.5252,4.5253,4.5249,4.5259,4.5259,4.527,4.5271,4.5282,0,4.5294,0,4.5289,4.5285,4.5285,0,0,0,4.5243,4.5267,4.5264,4.5253,4.5249,4.5259,4.5253,4.527,4.5272,4.5284,4.5294,4.5295,4.5289,4.5285,4.5285,4.537,4.537,0,0,4.5243,4.5257,4.5263,4.5266,4.5266,4.5253,4.5253,4.5271,4.5283,4.5294,4.5295,4.529,4.5285,4.5285,4.5369,4.537,0,0,0,4.5245,4.5257,4.5253,4.5265,4.5267,4.5253,4.5254,4.5282,4.528,4.5295,4.529,4.5285,4.5286,4.5368,4.5369,4.5417,0,0,0,4.5244,4.5258,4.5253,4.5262,4.5266,4.5274,4.5264,4.5279,4.528,4.529,4.5285,4.5286,4.5368,4.5369,4.5414,4.5437,0,0,0,4.5249,4.5258,4.5262,4.5262,4.5268,4.5274,4.5273,4.5279,4.5277,4.5285,4.5286,4.5367,4.5369,4.5412,4.5433,4.5466,0,0,0,4.5257,4.5302,4.5263,4.5311,4.5268,4.5304,4.5272,4.5298,4.531,4.5286,4.5368,4.5369,4.5411,4.543,4.5463,4.5497,4.5512,0,0,4.5321,4.531,4.5337,4.5303,4.535,4.5301,4.5354,4.5351,4.5337,4.536,4.5361,4.5415,4.5433,4.5465,4.5589,4.5601,0,0,0,4.5362,4.5382,4.5391,4.5405,4.5405,4.5408,4.5395,4.5395,4.5414,4.5352,4.5435,4.5444,4.5463,4.5478,4.5489,4.5505,4.5377,4.5377,4.5376,4.5472,4.5455,4.55,4.5486,4.5499,4.5488,4.5498,4.5494,4.547,4.5491,4.5498,4.5575,4.5594,4.5601,4.5618,4.5513,4.5513,4.5513,4.5513,4.5565,4.5592,4.5563,4.5597,4.5579,4.5606,4.5598,4.5581,4.5604,4.5568,4.5583,4.5546,4.5615,4.5629,4.5517,4.5516,4.5516,4.5515,4.5515,4.5636,4.5646,4.5647,4.5667,4.5685,4.5668,4.5693,4.5675,4.5657,4.5673,4.5679,4.5679,4.5677,4.5677,4.5677,4.5678,4.5678,4.5678,4.5678,4.571,4.5709,4.5733,4.574,4.5749,4.5757,4.5748,4.5755,4.5759,4.5744,4.5743,4.572,4.5625,4.5602,4.5682,4.5682,4.5681,4.5681,4.568,4.5813,4.5788,4.5825,4.5834,4.5842,4.5863,4.584,4.5857,4.586,4.5874,4.5847,4.578,4.5766,4.5758,4.5739,4.585,4.585,4.585,4.585,4.5874,4.5867,4.5903,4.5918,4.5931,4.5916,4.596,4.5954,4.5944,4.5945,4.5927,4.59,4.5892,4.5883,4.5872,4.5855,4.5992,4.5992,4.5992,4.5938,4.5931,4.5972,4.5964,4.597,4.5976,4.6017,4.6036,4.6019,4.5998,4.5947,4.5941,4.5897,4.5884,4.5862,4.5845,4.5812,0,0]}]]